GW5028 Weather Reports


time (UTC)temp
C
wind
direction
speed
KPH
gust
KPH
rain 1hr
cm
rain 24hr
cm
rain mn
cm
humidity
%
barometer
mb
20260510162643 25 259 6.4 6.4 0.00 0.00 0.00 36 1017.3
20260510162141 26 123 1.6 9.7 0.00 0.00 0.00 36 1017.4
20260510161636 26 247 3.2 9.7 0.00 0.00 0.00 36 1017.3
20260510161133 26 132 1.6 3.2 0.00 0.00 0.00 36 1017.3
20260510160630 26 105 3.2 6.4 0.00 0.00 0.00 35 1017.5
20260510160130 25 59 1.6 6.4 0.00 0.00 0.00 40 1017.5
20260510155627 25 281 9.7 16.1 0.00 0.00 0.00 42 1017.5
20260510155123 26 281 6.4 9.7 0.00 0.00 0.00 43 1017.4
20260510154618 25 156 3.2 11.3 0.00 0.00 0.00 45 1017.5
20260510154114 25 190 3.2 9.7 0.00 0.00 0.00 47 1017.5
20260510153610 25 138 1.6 3.2 0.00 0.00 0.00 44 1017.5
20260510153106 25 55 3.2 9.7 0.00 0.00 0.00 47 1017.6
20260510152603 25 279 11.3 14.5 0.00 0.00 0.00 47 1017.7
20260510152059 24 157 4.8 6.4 0.00 0.00 0.00 47 1017.8
20260510151556 25 173 1.6 3.2 0.00 0.00 0.00 49 1017.7
20260510151054 24 93 3.2 3.2 0.00 0.00 0.00 50 1017.6
20260510150554 24 140 1.6 6.4 0.00 0.00 0.00 48 1017.5
20260510150050 23 198 4.8 4.8 0.00 0.00 0.00 49 1017.6
20260510145547 23 102 4.8 6.4 0.00 0.00 0.00 48 1017.6
20260510145044 23 142 0.0 4.8 0.00 0.00 0.00 49 1017.7
20260510144540 23 180 0.0 6.4 0.00 0.00 0.00 49 1017.6
20260510144036 22 208 4.8 4.8 0.00 0.00 0.00 52 1017.9
20260510143531 22 155 3.2 6.4 0.00 0.00 0.00 51 1017.5
20260510143028 22 281 3.2 3.2 0.00 0.00 0.00 51 1017.5
20260510142525 22 140 1.6 3.2 0.00 0.00 0.00 56 1017.6
20260510142021 21 219 1.6 4.8 0.00 0.00 0.00 57 1017.6
20260510141517 21 169 1.6 4.8 0.00 0.00 0.00 58 1017.8
20260510141015 21 159 1.6 4.8 0.00 0.00 0.00 61 1017.7
20260510140511 21 269 6.4 9.7 0.00 0.00 0.00 61 1017.6
20260510140006 20 268 6.4 6.4 0.00 0.00 0.00 63 1017.6
20260510135501 20 150 0.0 1.6 0.00 0.00 0.00 64 1017.7
20260510134958 20 240 6.4 9.7 0.00 0.00 0.00 65 1017.9
20260510134456 20 245 3.2 4.8 0.00 0.00 0.00 67 1017.7
20260510133952 19 243 4.8 6.4 0.00 0.00 0.00 68 1017.7
20260510133448 19 159 0.0 3.2 0.00 0.00 0.00 67 1017.6
20260510132944 18 101 1.6 3.2 0.00 0.00 0.00 69 1017.6
20260510132442 18 327 0.0 3.2 0.00 0.00 0.00 72 1017.6
20260510131938 18 112 1.6 3.2 0.00 0.00 0.00 74 1017.5
20260510131436 17 158 0.0 3.2 0.00 0.00 0.00 75 1017.6
20260510130932 17 148 0.0 0.0 0.00 0.00 0.00 76 1017.7
20260510130429 17 142 0.0 0.0 0.00 0.00 0.00 80 1017.4
20260510125926 16 151 0.0 0.0 0.00 0.00 0.00 82 1017.5
20260510125422 16 146 0.0 0.0 0.00 0.00 0.00 87 1017.6
20260510124919 15 184 1.6 3.2 0.00 0.00 0.00 94 1017.7
20260510124416 14 158 0.0 1.6 0.00 0.00 0.00 99 1017.6
20260510123912 14 156 0.0 1.6 0.00 0.00 0.00 99 1017.6
20260510123408 13 160 0.0 1.6 0.00 0.00 0.00 99 1017.4
20260510122905 13 158 0.0 0.0 0.00 0.00 0.00 99 1017.3
20260510122359 13 145 0.0 1.6 0.00 0.00 0.00 99 1017.2
20260510121856 13 152 0.0 1.6 0.00 0.00 0.00 99 1017.3
20260510121354 13 194 3.2 3.2 0.00 0.00 0.00 99 1017.2
20260510120851 12 156 0.0 0.0 0.00 0.00 0.00 99 1017.0
20260510120348 12 164 1.6 3.2 0.00 0.00 0.00 99 1017.1
20260510115849 12 158 1.6 4.8 0.00 0.00 0.00 99 1017.1
20260510115346 12 152 0.0 0.0 0.00 0.00 0.00 99 1016.8
20260510114841 12 158 0.0 0.0 0.00 0.00 0.00 99 1016.4
20260510114339 12 157 0.0 0.0 0.00 0.00 0.00 99 1016.4
20260510113839 11 157 0.0 0.0 0.00 0.00 0.00 99 1016.2
20260510113336 11 157 0.0 0.0 0.00 0.00 0.00 99 1016.4
20260510112832 11 157 0.0 0.0 0.00 0.00 0.00 99 1016.1
20260510112329 10 156 0.0 0.0 0.00 0.00 0.00 99 1016.2
20260510111825 10 156 0.0 0.0 0.00 0.00 0.00 99 1016.1
20260510111322 10 158 0.0 0.0 0.00 0.00 0.00 99 1016.1
20260510110817 10 154 0.0 0.0 0.00 0.00 0.00 99 1016.1
20260510110315 10 153 0.0 0.0 0.00 0.00 0.00 99 1016.1
20260510105810 10 153 0.0 0.0 0.00 0.00 0.00 99 1015.7
20260510105309 10 156 0.0 0.0 0.00 0.00 0.00 99 1015.5
20260510104806 10 156 0.0 0.0 0.00 0.00 0.00 99 1015.7
20260510104304 10 157 0.0 0.0 0.00 0.00 0.00 99 1015.6
20260510103800 10 153 0.0 0.0 0.00 0.00 0.00 99 1015.4
20260510103258 10 154 0.0 0.0 0.00 0.00 0.00 99 1015.1
20260510102757 10 154 0.0 0.0 0.00 0.00 0.00 99 1015.3
20260510102254 10 156 0.0 0.0 0.00 0.00 0.00 99 1015.2
20260510101751 10 158 0.0 0.0 0.00 0.00 0.00 99 1015.1
20260510101250 10 157 0.0 0.0 0.00 0.00 0.00 99 1014.9
20260510100745 10 157 0.0 0.0 0.00 0.00 0.00 99 1015.1
20260510100243 10 153 0.0 0.0 0.00 0.00 0.00 99 1015.1
20260510095738 10 153 0.0 0.0 0.00 0.00 0.00 99 1014.9
20260510095234 11 152 0.0 0.0 0.00 0.00 0.00 99 1015.0
20260510094732 11 154 0.0 0.0 0.00 0.00 0.00 99 1014.7
20260510094228 11 156 0.0 0.0 0.00 0.00 0.00 99 1014.8
20260510093724 11 156 0.0 0.0 0.00 0.00 0.00 99 1014.8
20260510093222 10 157 0.0 0.0 0.00 0.00 0.00 99 1014.8
20260510092718 11 157 0.0 0.0 0.00 0.00 0.00 99 1014.6
20260510092214 11 157 0.0 0.0 0.00 0.00 0.00 99 1014.6
20260510091709 11 158 0.0 0.0 0.00 0.00 0.00 99 1014.7
20260510091206 11 153 0.0 0.0 0.00 0.00 0.00 99 1014.5
20260510090703 11 153 0.0 0.0 0.00 0.00 0.00 99 1014.6
20260510090200 11 158 0.0 0.0 0.00 0.00 0.00 99 1014.6
20260510085655 11 158 0.0 0.0 0.00 0.00 0.00 99 1014.4
20260510085150 11 158 0.0 0.0 0.00 0.00 0.00 99 1014.5
20260510084647 11 152 0.0 0.0 0.00 0.00 0.00 99 1014.3
20260510084143 11 154 0.0 0.0 0.00 0.00 0.00 99 1014.2
20260510083640 12 156 0.0 0.0 0.00 0.00 0.00 99 1014.5
20260510083137 12 157 0.0 0.0 0.00 0.00 0.00 99 1014.3
20260510082633 12 159 0.0 0.0 0.00 0.00 0.00 99 1014.6
20260510082129 12 160 0.0 0.0 0.00 0.00 0.00 99 1014.1
20260510081623 12 156 0.0 0.0 0.00 0.00 0.00 99 1014.2
20260510081119 12 154 0.0 0.0 0.00 0.00 0.00 99 1014.0
20260510080619 12 153 0.0 0.0 0.00 0.00 0.00 99 1014.1
20260510080116 12 152 0.0 0.0 0.00 0.00 0.00 99 1013.9
20260510075613 12 150 0.0 1.6 0.00 0.00 0.00 99 1014.1
20260510075110 12 156 0.0 0.0 0.00 0.00 0.00 99 1013.7
20260510074607 12 154 0.0 0.0 0.00 0.00 0.00 99 1013.9
20260510074103 12 153 0.0 0.0 0.00 0.00 0.00 99 1013.9
20260510073559 12 151 0.0 0.0 0.00 0.00 0.00 99 1013.6
20260510073056 12 154 0.0 0.0 0.00 0.00 0.00 99 1013.8
20260510072553 12 154 0.0 0.0 0.00 0.00 0.00 99 1013.9
20260510072048 12 154 0.0 0.0 0.00 0.00 0.00 99 1013.8
20260510071544 12 154 0.0 0.0 0.00 0.00 0.00 99 1013.7
20260510071043 12 154 0.0 0.0 0.00 0.00 0.00 99 1013.6
20260510070539 12 156 0.0 0.0 0.00 0.00 0.00 99 1013.7
20260510070036 13 152 0.0 0.0 0.00 0.00 0.00 99 1013.7
20260510065533 13 151 0.0 0.0 0.00 0.00 0.00 99 1013.7
20260510065029 13 151 0.0 0.0 0.00 0.00 0.00 99 1013.6
20260510064525 13 152 0.0 0.0 0.00 0.00 0.00 99 1013.7
20260510064022 13 146 0.0 0.0 0.00 0.00 0.00 99 1013.9
20260510063519 13 155 0.0 1.6 0.00 0.00 0.00 99 1013.8
20260510063017 13 156 0.0 0.0 0.00 0.00 0.00 99 1013.7
20260510062512 13 153 0.0 0.0 0.00 0.00 0.00 99 1013.7
20260510062007 13 147 0.0 0.0 0.00 0.00 0.00 99 1013.6
20260510061504 13 153 0.0 0.0 0.00 0.00 0.00 99 1014.0
20260510061001 13 153 0.0 0.0 0.00 0.00 0.00 99 1014.0
20260510060457 13 152 0.0 0.0 0.00 0.00 0.00 99 1014.0
20260510055953 13 149 0.0 0.0 0.00 0.00 0.00 99 1014.0
20260510055449 13 146 0.0 0.0 0.00 0.00 0.00 99 1013.8
20260510054948 13 156 0.0 0.0 0.00 0.00 0.00 99 1013.9
20260510054442 13 160 0.0 0.0 0.00 0.00 0.00 99 1013.9
20260510053938 13 157 0.0 0.0 0.00 0.00 0.00 99 1013.8
20260510053434 14 151 0.0 0.0 0.00 0.00 0.00 99 1013.7
20260510052930 14 131 1.6 1.6 0.00 0.00 0.00 99 1013.7
20260510052426 14 145 0.0 1.6 0.00 0.00 0.00 99 1013.9
20260510051922 14 155 1.6 1.6 0.00 0.00 0.00 99 1014.2
20260510051419 14 158 0.0 0.0 0.00 0.00 0.00 99 1013.9
20260510050915 14 153 0.0 0.0 0.00 0.00 0.00 98 1014.1
20260510050412 14 152 0.0 0.0 0.00 0.00 0.00 98 1014.1
20260510045909 14 153 0.0 1.6 0.00 0.00 0.00 98 1014.2
20260510045406 15 152 0.0 0.0 0.00 0.00 0.00 98 1014.3
20260510044903 15 150 0.0 0.0 0.00 0.00 0.00 98 1014.0
20260510044400 15 149 0.0 0.0 0.00 0.00 0.00 98 1014.1
20260510043856 15 149 0.0 0.0 0.00 0.00 0.00 97 1014.1
20260510043352 15 151 0.0 0.0 0.00 0.00 0.00 97 1014.1
20260510042851 14 156 0.0 0.0 0.00 0.00 0.00 97 1014.1
20260510042346 15 155 0.0 0.0 0.00 0.00 0.00 97 1014.1
20260510041842 15 154 0.0 0.0 0.00 0.00 0.00 97 1014.1
20260510041340 15 153 0.0 0.0 0.00 0.00 0.00 96 1013.9
20260510040837 15 152 0.0 0.0 0.00 0.00 0.00 96 1014.1
20260510040334 15 153 0.0 0.0 0.00 0.00 0.00 96 1014.2
20260510035829 15 153 0.0 0.0 0.00 0.00 0.00 95 1014.0
20260510035325 15 153 0.0 0.0 0.00 0.00 0.00 95 1013.9
20260510034821 15 152 0.0 0.0 0.00 0.00 0.00 94 1013.9
20260510034319 15 153 0.0 0.0 0.00 0.00 0.00 94 1014.1
20260510033815 15 153 0.0 0.0 0.00 0.00 0.00 93 1013.9
20260510033313 16 152 0.0 0.0 0.00 0.00 0.00 93 1014.0
20260510032809 16 152 0.0 0.0 0.00 0.00 0.00 93 1014.0
20260510032306 16 152 0.0 0.0 0.00 0.00 0.00 92 1014.0
20260510031801 16 152 0.0 0.0 0.00 0.00 0.00 91 1013.9
20260510031258 16 153 0.0 0.0 0.00 0.00 0.00 90 1014.0
20260510030756 16 153 0.0 0.0 0.00 0.00 0.00 90 1014.2
20260510030254 16 154 0.0 0.0 0.00 0.00 0.00 90 1014.1
20260510025751 16 155 0.0 0.0 0.00 0.00 0.00 90 1014.0
20260510025249 16 153 0.0 0.0 0.00 0.00 0.00 89 1013.9
20260510024745 17 156 0.0 0.0 0.00 0.00 0.00 88 1014.1
20260510024242 17 152 0.0 0.0 0.00 0.00 0.00 87 1014.0
20260510023738 17 152 0.0 0.0 0.00 0.00 0.00 87 1014.1
20260510023236 17 152 0.0 0.0 0.00 0.00 0.00 85 1013.8
20260510022732 17 154 0.0 0.0 0.00 0.00 0.00 85 1013.6
20260510022231 17 151 0.0 0.0 0.00 0.00 0.00 85 1013.7
20260510021726 17 152 0.0 0.0 0.00 0.00 0.00 85 1013.5
20260510021224 17 156 0.0 0.0 0.00 0.00 0.00 85 1013.5
20260510020719 18 156 0.0 0.0 0.00 0.00 0.00 83 1013.6
20260510020219 18 154 0.0 0.0 0.00 0.00 0.00 82 1013.5
20260510015715 18 152 0.0 1.6 0.00 0.00 0.00 81 1013.4
20260510015212 18 154 0.0 1.6 0.00 0.00 0.00 81 1013.4
20260510014707 18 156 0.0 0.0 0.00 0.00 0.00 80 1013.3
20260510014206 19 158 0.0 1.6 0.00 0.00 0.00 79 1013.4
20260510013706 19 160 0.0 1.6 0.00 0.00 0.00 79 1013.3
20260510013202 19 157 0.0 1.6 0.00 0.00 0.00 79 1013.2
20260510012701 19 155 0.0 3.2 0.00 0.00 0.00 78 1012.8
20260510012157 19 158 0.0 0.0 0.00 0.00 0.00 78 1013.0
20260510011652 19 159 0.0 3.2 0.00 0.00 0.00 78 1012.9
20260510011148 20 183 1.6 3.2 0.00 0.00 0.00 78 1012.7
20260510010644 20 159 1.6 3.2 0.00 0.00 0.00 77 1012.5
20260510010141 20 185 1.6 1.6 0.00 0.00 0.00 77 1012.4
20260510005637 20 163 1.6 3.2 0.00 0.00 0.00 76 1012.4
20260510005134 20 158 3.2 3.2 0.00 0.00 0.00 76 1012.2
20260510004633 20 154 1.6 1.6 0.00 0.00 0.00 76 1012.3
20260510004131 20 153 0.0 3.2 0.00 0.00 0.00 76 1011.9
20260510003627 20 163 1.6 1.6 0.00 0.00 0.00 74 1012.1
20260510003123 20 163 0.0 0.0 0.00 0.00 0.00 74 1011.9
20260510002623 20 159 0.0 0.0 0.00 0.00 0.00 74 1011.9
20260510002121 20 163 0.0 3.2 0.00 0.00 0.00 73 1011.7
20260510001617 20 156 0.0 1.6 0.00 0.00 0.00 73 1011.7
20260510001116 21 163 1.6 3.2 0.00 0.00 0.00 73 1011.9
20260510000616 21 163 1.6 1.6 0.00 0.00 0.00 72 1011.6
20260510000114 21 156 0.0 3.2 0.00 0.00 0.00 72 1011.6
20260509235610 21 160 1.6 9.7 0.00 0.00 0.00 71 1011.8
20260509235107 21 153 3.2 4.8 0.00 0.00 0.00 70 1011.7
20260509234603 21 163 1.6 3.2 0.00 0.00 0.00 70 1011.7
20260509234101 21 165 3.2 9.7 0.00 0.00 0.00 69 1011.8
20260509233558 21 166 0.0 6.4 0.00 0.00 0.00 69 1011.6
20260509233055 21 157 0.0 3.2 0.00 0.00 0.00 68 1011.4
20260509232552 22 287 3.2 6.4 0.00 0.00 0.00 67 1011.2
20260509232049 22 162 0.0 1.6 0.00 0.00 0.00 67 1011.2
20260509231545 22 164 3.2 4.8 0.00 0.00 0.00 66 1011.2
20260509231043 22 181 3.2 4.8 0.00 0.00 0.00 65 1011.3
20260509230539 22 155 1.6 3.2 0.00 0.00 0.00 66 1011.2
20260509230037 22 153 0.0 1.6 0.00 0.00 0.00 65 1011.3
20260509225532 22 161 1.6 3.2 0.00 0.00 0.00 64 1011.1
20260509225027 22 147 1.6 3.2 0.00 0.00 0.00 64 1010.9
20260509224523 22 180 1.6 3.2 0.00 0.00 0.00 65 1010.9
20260509224020 22 203 3.2 4.8 0.00 0.00 0.00 63 1010.7
20260509223517 22 214 6.4 9.7 0.00 0.00 0.00 62 1010.8
20260509223015 23 269 4.8 6.4 0.00 0.00 0.00 62 1010.7
20260509222511 23 175 3.2 6.4 0.00 0.00 0.00 61 1010.7
20260509222006 23 169 3.2 4.8 0.00 0.00 0.00 61 1010.7
20260509221502 23 199 1.6 6.4 0.00 0.00 0.00 63 1010.9
20260509220958 23 154 4.8 9.7 0.00 0.00 0.00 61 1010.7
20260509220455 24 173 1.6 4.8 0.00 0.00 0.00 58 1010.7
20260509215950 24 118 4.8 6.4 0.00 0.00 0.00 59 1010.6
20260509215446 23 182 6.4 9.7 0.00 0.00 0.00 59 1010.7
20260509214944 23 200 6.4 9.7 0.00 0.00 0.00 59 1010.6
20260509214441 25 161 8.0 12.9 0.00 0.00 0.00 57 1010.5
20260509213937 24 159 4.8 6.4 0.00 0.00 0.00 57 1010.4
20260509213433 23 198 4.8 11.3 0.00 0.00 0.00 58 1010.7
20260509212931 23 189 4.8 9.7 0.00 0.00 0.00 58 1010.6
20260509212429 23 148 6.4 9.7 0.00 0.00 0.00 59 1010.6
20260509211925 23 201 6.4 6.4 0.00 0.00 0.00 58 1010.7
20260509211420 23 193 6.4 6.4 0.00 0.00 0.00 59 1010.4
20260509210917 23 178 3.2 4.8 0.00 0.00 0.00 60 1010.6
20260509210414 23 169 3.2 9.7 0.00 0.00 0.00 60 1010.6
20260509205910 23 155 9.7 14.5 0.00 0.00 0.00 59 1010.5
20260509205409 23 162 3.2 9.7 0.00 0.00 0.00 60 1010.4
20260509204906 23 153 6.4 9.7 0.00 0.00 0.00 59 1010.2
20260509204402 23 129 6.4 11.3 0.00 0.00 0.00 60 1010.1
20260509203859 23 157 3.2 17.7 0.00 0.00 0.00 61 1010.2
20260509203355 23 161 1.6 4.8 0.00 0.00 0.00 61 1010.3
20260509202853 23 161 4.8 9.7 0.00 0.00 0.00 60 1010.3
20260509202348 23 160 6.4 12.9 0.00 0.00 0.00 60 1010.4
20260509201843 24 252 6.4 12.9 0.00 0.00 0.00 56 1010.5
20260509201339 23 168 11.3 12.9 0.00 0.00 0.00 60 1010.4
20260509200836 23 173 4.8 6.4 0.00 0.00 0.00 61 1010.4
20260509200331 23 148 4.8 11.3 0.00 0.00 0.00 61 1010.6
20260509195828 23 297 8.0 11.3 0.00 0.00 0.00 60 1010.6
20260509195328 24 133 6.4 12.9 0.00 0.00 0.00 60 1010.4
20260509194828 23 271 8.0 12.9 0.00 0.00 0.00 62 1010.6
20260509194324 23 199 4.8 12.9 0.00 0.00 0.00 60 1010.7
20260509193821 23 183 4.8 9.7 0.00 0.00 0.00 60 1010.8
20260509193320 23 152 1.6 11.3 0.00 0.00 0.00 61 1011.0
20260509192817 23 224 6.4 20.9 0.00 0.00 0.00 60 1010.9
20260509192313 23 195 4.8 9.7 0.00 0.00 0.00 60 1011.1
20260509191808 22 142 3.2 9.7 0.00 0.00 0.00 62 1011.0
20260509191305 22 175 6.4 9.7 0.00 0.00 0.00 63 1011.1
20260509190800 22 282 3.2 9.7 0.00 0.00 0.00 63 1011.0
20260509190258 23 164 9.7 12.9 0.00 0.00 0.00 61 1010.8
20260509185755 23 198 3.2 9.7 0.00 0.00 0.00 65 1010.9
20260509185251 22 175 4.8 14.5 0.00 0.00 0.00 61 1010.9
20260509184749 22 179 3.2 12.9 0.00 0.00 0.00 63 1010.9
20260509184246 23 124 8.0 11.3 0.00 0.00 0.00 62 1010.9
20260509183742 23 225 6.4 11.3 0.00 0.00 0.00 62 1011.0
20260509183237 22 193 8.0 9.7 0.00 0.00 0.00 62 1010.9
20260509182733 22 193 6.4 17.7 0.00 0.00 0.00 60 1011.2
20260509182231 22 261 6.4 12.9 0.00 0.00 0.00 60 1011.3
20260509181729 23 41 9.7 14.5 0.00 0.00 0.00 59 1011.4
20260509181226 22 218 8.0 11.3 0.00 0.00 0.00 60 1011.5
20260509180723 22 153 3.2 14.5 0.00 0.00 0.00 61 1011.5
20260509180219 22 275 12.9 17.7 0.00 0.00 0.00 60 1011.5
20260509175715 22 202 3.2 6.4 0.00 0.00 0.00 61 1011.6
20260509175212 22 179 9.7 12.9 0.00 0.00 0.00 58 1011.8
20260509174707 22 174 3.2 11.3 0.00 0.00 0.00 64 1011.6
20260509174203 21 165 3.2 6.4 0.00 0.00 0.00 63 1011.9
20260509173659 21 270 6.4 14.5 0.00 0.00 0.00 62 1011.7
20260509173155 22 253 4.8 11.3 0.00 0.00 0.00 62 1011.8
20260509172651 21 193 3.2 4.8 0.00 0.00 0.00 63 1011.7
20260509172148 22 292 3.2 6.4 0.00 0.00 0.00 61 1011.9
20260509171643 21 240 9.7 14.5 0.00 0.00 0.00 64 1011.9
20260509171140 22 292 12.9 16.1 0.00 0.00 0.00 60 1012.1
20260509170637 21 174 8.0 12.9 0.00 0.00 0.00 64 1011.8
20260509170133 21 108 6.4 11.3 0.00 0.00 0.00 65 1012.1
20260509165631 20 174 3.2 11.3 0.00 0.00 0.00 68 1012.2
20260509165127 20 104 1.6 9.7 0.00 0.00 0.00 68 1012.4
20260509164623 21 281 8.0 9.7 0.00 0.00 0.00 65 1012.4
20260509164119 20 192 3.2 6.4 0.00 0.00 0.00 67 1012.4
20260509163617 20 273 4.8 17.7 0.00 0.00 0.00 69 1012.7
20260509163112 20 153 6.4 11.3 0.00 0.00 0.00 68 1012.8